This demonstration page uses our WeatherBlox Daily Observations layout. Learn more.

Left ArrowRight Arrow

38.88101, -77.10428

Hourly Observations for January 13, 2022

Temp ( °F °C ) Dew Point ( °F °C ) Humidity (%) Winds ( mph kmh ) Pressure ( in mb ) Visibility ( mi km ) Precip ( " mm )
12:52 am 00:52 Cloudy 35 1.7 28 -2.2 76 76 S 3 6 30.07 1018 10 16 0.00 0.00
1:52 am 01:52 Cloudy 34 1.1 27 -2.8 76 76 Calm 30.06 1018 10 16 0.00 0.00
2:52 am 02:52 Cloudy 34 1.1 29 -1.7 82 82 Calm 30.06 1018 10 16 0.00 0.00
3:52 am 03:52 Cloudy 33 0.6 27 -2.8 78 78 Calm 30.04 1017 10 16 0.00 0.00
4:52 am 04:52 Cloudy 32 0 27 -2.8 82 82 SSW 3 6 30.02 1017 10 16 0.00 0.00
5:52 am 05:52 Cloudy 32 0 26 -3.3 79 79 Calm 30.03 1017 10 16 0.00 0.00
6:52 am 06:52 Mostly Cloudy 33 0.6 28 -2.2 82 82 Calm 30.04 1017 10 16 0.00 0.00
7:52 am 07:52 Sunny 33 0.6 27 -2.8 78 78 Calm 30.03 1017 10 16 0.00 0.00
8:52 am 08:52 Cloudy 34 1.1 29 -1.7 82 82 SE 3 6 30.04 1017 10 16 0.00 0.00
9:52 am 09:52 Cloudy 38 3.3 28 -2.2 68 68 Calm 30.03 1017 10 16 0.00 0.00
10:52 am 10:52 Cloudy 43 6.1 29 -1.7 58 58 Calm 30.00 1016 10 16 0.00 0.00
11:52 am 11:52 Cloudy 46 7.8 27 -2.8 47 47 NE 3 6 29.96 1015 10 16 0.00 0.00
12:52 pm 12:52 Cloudy 50 10 28 -2.2 43 43 Calm 29.93 1014 10 16 0.00 0.00
1:52 pm 13:52 Cloudy 51 10.6 26 -3.3 38 38 Calm 29.90 1013 10 16 0.00 0.00
2:52 pm 14:52 Cloudy 49 9.4 26 -3.3 41 41 ESE 5 7 29.88 1012 10 16 0.00 0.00
3:52 pm 15:52 Sunny 47 8.3 28 -2.2 48 48 NE 6 9 29.88 1012 10 16 0.00 0.00
4:52 pm 16:52 Cloudy 46 7.8 27 -2.8 47 47 NE 7 11 29.88 1012 10 16 0.00 0.00
5:52 pm 17:52 Cloudy 44 6.7 28 -2.2 53 53 NE 7 11 29.87 1012 10 16 0.00 0.00
6:52 pm 18:52 Cloudy 43 6.1 28 -2.2 56 56 NNE 6 9 29.87 1011 10 16 0.00 0.00
7:52 pm 19:52 Cloudy 42 5.6 28 -2.2 58 58 NE 6 9 29.86 1011 10 16 0.00 0.00
8:52 pm 20:52 Cloudy 42 5.6 29 -1.7 60 60 NNE 6 9 29.85 1011 10 16 0.00 0.00
9:52 pm 21:52 Cloudy 41 5 29 -1.7 62 62 NNE 5 7 29.85 1011 10 16 0.00 0.00
10:52 pm 22:52 Cloudy 41 5 29 -1.7 62 62 N 3 6 29.84 1011 10 16 0.00 0.00
11:52 pm 23:52 Cloudy 41 5 28 -2.2 60 60 N 7 11 29.82 1010 10 16 0.00 0.00

Powered by AerisWeather